Time,TemperatureF,DewpointF,PressureIn,WindDirection,WindDirectionDegrees,WindSpeedMPH,WindSpeedGustMPH,Humidity,HourlyPrecipIn,Conditions,Clouds,dailyrainin,SolarRadiationWatts/m^2,SoftwareType,DateUTC
2013-02-17 00:02:00,31.0,27.3,29.82,WSW,256,6.0,8.0,86,0.00,,,0.00,0,Wunderground v.1.15,2013-02-17 07:02:00,
2013-02-17 00:08:00,31.2,27.5,29.83,SW,234,6.0,8.0,86,0.00,,,0.00,0,Wunderground v.1.15,2013-02-17 07:08:00,
2013-02-17 00:14:00,31.3,27.3,29.83,SSW,207,6.0,16.0,85,0.00,,,0.00,0,Wunderground v.1.15,2013-02-17 07:14:00,
2013-02-17 00:20:00,31.5,26.9,29.82,SSW,209,8.0,8.0,83,0.00,,,0.00,0,Wunderground v.1.15,2013-02-17 07:20:00,
2013-02-17 00:26:00,31.7,26.2,29.82,SW,227,8.0,10.0,80,0.00,,,0.00,0,Wunderground v.1.15,2013-02-17 07:26:00,
2013-02-17 00:32:00,32.1,26.0,29.83,SW,221,8.0,9.0,78,0.00,,,0.00,0,Wunderground v.1.15,2013-02-17 07:32:00,
2013-02-17 00:38:00,32.3,26.2,29.83,SW,229,5.0,9.0,78,0.00,,,0.00,0,Wunderground v.1.15,2013-02-17 07:38:00,
2013-02-17 00:44:00,32.3,25.9,29.82,SW,221,3.0,5.0,77,0.00,,,0.00,0,Wunderground v.1.15,2013-02-17 07:44:00,
2013-02-17 00:50:00,32.3,25.9,29.82,SW,221,1.0,1.0,77,0.00,,,0.00,0,Wunderground v.1.15,2013-02-17 07:50:00,
2013-02-17 00:56:00,32.3,25.9,29.82,SW,221,0.0,1.0,77,0.00,,,0.00,0,Wunderground v.1.15,2013-02-17 07:56:00,
2013-02-17 01:02:00,32.1,24.7,29.82,SSW,201,0.0,3.0,74,0.00,,,0.00,0,Wunderground v.1.15,2013-02-17 08:02:00,
2013-02-17 01:08:00,32.0,24.0,29.82,South,173,2.0,4.0,72,0.00,,,0.00,0,Wunderground v.1.15,2013-02-17 08:08:00,
2013-02-17 01:14:00,32.0,23.7,29.81,SSE,162,2.0,5.0,71,0.00,,,0.00,0,Wunderground v.1.15,2013-02-17 08:14:00,
2013-02-17 01:20:00,32.1,23.8,29.81,SSE,162,2.0,2.0,71,0.00,,,0.00,0,Wunderground v.1.15,2013-02-17 08:20:00,
2013-02-17 01:26:00,32.1,23.8,29.81,SSE,162,1.0,2.0,71,0.00,,,0.00,0,Wunderground v.1.15,2013-02-17 08:26:00,
2013-02-17 01:32:00,32.0,24.0,29.81,SW,228,2.0,4.0,72,0.00,,,0.00,0,Wunderground v.1.15,2013-02-17 08:32:00,
2013-02-17 01:38:00,31.9,24.6,29.81,South,182,3.0,4.0,74,0.00,,,0.00,0,Wunderground v.1.15,2013-02-17 08:38:00,
2013-02-17 01:44:00,31.8,24.5,29.81,SSE,154,3.0,3.0,74,0.00,,,0.00,0,Wunderground v.1.15,2013-02-17 08:44:00,
2013-02-17 01:50:00,31.8,24.8,29.81,SSE,151,3.0,8.0,75,0.00,,,0.00,0,Wunderground v.1.15,2013-02-17 08:50:00,
2013-02-17 01:56:00,31.8,25.4,29.81,SE,135,5.0,8.0,77,0.00,,,0.00,0,Wunderground v.1.15,2013-02-17 08:56:00,
2013-02-17 02:02:00,31.8,25.4,29.81,East,90,4.0,6.0,77,0.00,,,0.00,0,Wunderground v.1.15,2013-02-17 09:02:00,
2013-02-17 02:08:00,31.7,25.3,29.80,East,83,4.0,6.0,77,0.00,,,0.00,0,Wunderground v.1.15,2013-02-17 09:08:00,
2013-02-17 02:14:00,31.6,25.2,29.80,East,90,4.0,4.0,77,0.00,,,0.00,0,Wunderground v.1.15,2013-02-17 09:14:00,
2013-02-17 02:20:00,31.4,25.0,29.80,East,89,2.0,2.0,77,0.00,,,0.00,0,Wunderground v.1.15,2013-02-17 09:20:00,
2013-02-17 02:26:00,31.3,24.9,29.80,East,89,0.0,2.0,77,0.00,,,0.00,0,Wunderground v.1.15,2013-02-17 09:26:00,
2013-02-17 02:32:00,31.1,24.7,29.79,ENE,69,0.0,4.0,77,0.00,,,0.00,0,Wunderground v.1.15,2013-02-17 09:32:00,
2013-02-17 02:38:00,31.0,24.6,29.79,SE,132,2.0,6.0,77,0.00,,,0.00,0,Wunderground v.1.15,2013-02-17 09:38:00,
2013-02-17 02:44:00,30.9,26.1,29.79,SSE,161,5.0,10.0,82,0.00,,,0.00,0,Wunderground v.1.15,2013-02-17 09:44:00,
2013-02-17 02:50:00,30.9,24.2,29.79,SSE,161,2.0,2.0,76,0.00,,,0.00,0,Wunderground v.1.15,2013-02-17 09:50:00,
2013-02-17 02:56:00,30.8,24.1,29.79,SSE,153,1.0,4.0,76,0.00,,,0.00,0,Wunderground v.1.15,2013-02-17 09:56:00,
2013-02-17 03:02:00,30.7,24.0,29.79,ESE,123,2.0,5.0,76,0.00,,,0.00,0,Wunderground v.1.15,2013-02-17 10:02:00,
2013-02-17 03:08:00,30.6,23.6,29.79,SSE,157,4.0,5.0,75,0.00,,,0.00,0,Wunderground v.1.15,2013-02-17 10:08:00,
2013-02-17 03:14:00,30.5,23.5,29.79,SSE,160,3.0,4.0,75,0.00,,,0.00,0,Wunderground v.1.15,2013-02-17 10:14:00,
2013-02-17 03:20:00,30.5,23.5,29.79,SSE,160,0.0,0.0,75,0.00,,,0.00,0,Wunderground v.1.15,2013-02-17 10:20:00,
2013-02-17 03:26:00,30.4,23.1,29.80,South,190,1.0,10.0,74,0.00,,,0.00,0,Wunderground v.1.15,2013-02-17 10:26:00,
2013-02-17 03:32:00,30.3,25.5,29.80,SW,232,9.0,15.0,82,0.00,,,0.00,0,Wunderground v.1.15,2013-02-17 10:32:00,
2013-02-17 03:40:00,29.3,25.4,29.80,SSW,206,14.0,14.0,85,0.00,,,0.00,0,Wunderground v.1.15,2013-02-17 10:40:00,
2013-02-17 03:46:00,29.0,25.3,29.81,SSW,198,10.0,14.0,86,0.00,,,0.00,0,Wunderground v.1.15,2013-02-17 10:46:00,
2013-02-17 03:52:00,28.6,24.9,29.81,South,186,8.0,8.0,86,0.00,,,0.00,0,Wunderground v.1.15,2013-02-17 10:52:00,
2013-02-17 03:58:00,28.4,25.0,29.81,SW,217,5.0,8.0,87,0.00,,,0.00,0,Wunderground v.1.15,2013-02-17 10:58:00,
2013-02-17 04:04:00,28.3,24.9,29.80,SW,217,2.0,5.0,87,0.00,,,0.00,0,Wunderground v.1.15,2013-02-17 11:04:00,
2013-02-17 04:12:00,28.4,24.7,29.81,North,11,3.0,6.0,86,0.00,,,0.00,0,Wunderground v.1.15,2013-02-17 11:12:00,
2013-02-17 04:18:00,28.5,24.3,29.80,West,268,4.0,9.0,84,0.00,,,0.00,0,Wunderground v.1.15,2013-02-17 11:18:00,
2013-02-17 04:24:00,28.9,23.5,29.81,SW,228,6.0,8.0,80,0.00,,,0.00,0,Wunderground v.1.15,2013-02-17 11:24:00,
2013-02-17 04:30:00,29.2,22.9,29.81,SW,235,8.0,8.0,77,0.00,,,0.00,0,Wunderground v.1.15,2013-02-17 11:30:00,
2013-02-17 04:36:00,29.4,22.8,29.81,North,5,4.0,8.0,76,0.00,,,0.00,0,Wunderground v.1.15,2013-02-17 11:36:00,
2013-02-17 04:42:00,29.4,22.5,29.82,North,5,2.0,2.0,75,0.00,,,0.00,0,Wunderground v.1.15,2013-02-17 11:42:00,
2013-02-17 04:48:00,29.2,21.0,29.82,SE,142,1.0,4.0,71,0.00,,,0.00,0,Wunderground v.1.15,2013-02-17 11:48:00,
2013-02-17 04:54:00,29.0,20.8,29.81,SSE,162,1.0,1.0,71,0.00,,,0.00,0,Wunderground v.1.15,2013-02-17 11:54:00,
2013-02-17 05:00:00,28.9,20.0,29.81,NE,38,1.0,1.0,69,0.00,,,0.00,0,Wunderground v.1.15,2013-02-17 12:00:00,
2013-02-17 05:06:00,28.8,19.9,29.82,SSW,210,2.0,4.0,69,0.00,,,0.00,0,Wunderground v.1.15,2013-02-17 12:06:00,
2013-02-17 05:12:00,28.7,19.5,29.81,NNW,330,3.0,6.0,68,0.00,,,0.00,0,Wunderground v.1.15,2013-02-17 12:12:00,
2013-02-17 05:18:00,28.8,19.6,29.82,NE,36,4.0,6.0,68,0.00,,,0.00,0,Wunderground v.1.15,2013-02-17 12:18:00,
2013-02-17 05:24:00,29.0,19.1,29.81,NE,44,3.0,5.0,66,0.00,,,0.00,0,Wunderground v.1.15,2013-02-17 12:24:00,
2013-02-17 05:30:00,29.3,19.0,29.82,SE,131,3.0,3.0,65,0.00,,,0.00,0,Wunderground v.1.15,2013-02-17 12:30:00,
2013-02-17 05:36:00,29.4,20.5,29.82,NNW,346,2.0,6.0,69,0.00,,,0.00,0,Wunderground v.1.15,2013-02-17 12:36:00,
2013-02-17 05:42:00,29.4,20.1,29.82,NW,320,6.0,6.0,68,0.00,,,0.00,0,Wunderground v.1.15,2013-02-17 12:42:00,
2013-02-17 05:48:00,29.4,19.8,29.82,SE,140,4.0,9.0,67,0.00,,,0.00,0,Wunderground v.1.15,2013-02-17 12:48:00,
2013-02-17 05:54:00,29.4,18.7,29.83,SE,133,1.0,3.0,64,0.00,,,0.00,0,Wunderground v.1.15,2013-02-17 12:54:00,
2013-02-17 06:00:00,29.4,19.1,29.83,SE,133,0.0,0.0,65,0.00,,,0.00,0,Wunderground v.1.15,2013-02-17 13:00:00,
2013-02-17 06:06:00,29.4,19.4,29.82,SE,146,0.0,0.0,66,0.00,,,0.00,0,Wunderground v.1.15,2013-02-17 13:06:00,
2013-02-17 06:12:00,29.4,19.4,29.83,SSE,155,0.0,5.0,66,0.00,,,0.00,0,Wunderground v.1.15,2013-02-17 13:12:00,
2013-02-17 06:18:00,29.4,18.7,29.83,SSE,162,3.0,11.0,64,0.00,,,0.00,0,Wunderground v.1.15,2013-02-17 13:18:00,
2013-02-17 06:24:00,29.5,19.5,29.82,SE,143,6.0,10.0,66,0.00,,,0.00,0,Wunderground v.1.15,2013-02-17 13:24:00,
2013-02-17 06:30:00,29.5,19.5,29.83,SSE,153,8.0,8.0,66,0.00,,,0.00,0,Wunderground v.1.15,2013-02-17 13:30:00,
2013-02-17 06:36:00,29.5,19.2,29.82,South,172,8.0,12.0,65,0.00,,,0.00,0,Wunderground v.1.15,2013-02-17 13:36:00,
2013-02-17 06:42:00,29.5,19.5,29.82,South,173,8.0,9.0,66,0.00,,,0.00,0,Wunderground v.1.15,2013-02-17 13:42:00,
2013-02-17 06:48:00,29.4,19.4,29.83,South,170,8.0,11.0,66,0.00,,,0.00,0,Wunderground v.1.15,2013-02-17 13:48:00,
2013-02-17 06:54:00,29.3,19.7,29.83,South,184,8.0,10.0,67,0.00,,,0.00,0,Wunderground v.1.15,2013-02-17 13:54:00,
2013-02-17 07:00:00,29.3,19.7,29.83,South,185,8.0,8.0,67,0.00,,,0.00,0,Wunderground v.1.15,2013-02-17 14:00:00,
2013-02-17 07:06:00,29.2,19.9,29.84,South,179,8.0,9.0,68,0.00,,,0.00,0,Wunderground v.1.15,2013-02-17 14:06:00,
2013-02-17 07:12:00,29.0,20.4,29.84,South,184,9.0,11.0,70,0.00,,,0.00,0,Wunderground v.1.15,2013-02-17 14:12:00,
2013-02-17 07:18:00,28.8,20.6,29.83,SSE,159,8.0,11.0,71,0.00,,,0.00,0,Wunderground v.1.15,2013-02-17 14:18:00,
2013-02-17 07:24:00,28.6,20.7,29.83,SSE,161,3.0,6.0,72,0.00,,,0.00,0,Wunderground v.1.15,2013-02-17 14:24:00,
2013-02-17 07:30:00,28.4,20.5,29.83,SSE,160,2.0,2.0,72,0.00,,,0.00,0,Wunderground v.1.15,2013-02-17 14:30:00,
2013-02-17 07:36:00,28.3,20.7,29.83,SSE,157,1.0,6.0,73,0.00,,,0.00,0,Wunderground v.1.15,2013-02-17 14:36:00,
2013-02-17 07:42:00,28.1,20.9,29.83,SSE,157,2.0,2.0,74,0.00,,,0.00,7,Wunderground v.1.15,2013-02-17 14:42:00,
2013-02-17 07:48:00,27.9,20.7,29.83,SSE,157,0.0,2.0,74,0.00,,,0.00,11,Wunderground v.1.15,2013-02-17 14:48:00,
2013-02-17 07:56:00,27.5,20.6,29.83,West,274,1.0,4.0,75,0.00,,,0.00,14,Wunderground v.1.15,2013-02-17 14:56:00,
2013-02-17 08:02:00,27.0,20.4,29.83,West,275,3.0,3.0,76,0.00,,,0.00,18,Wunderground v.1.15,2013-02-17 15:02:00,
2013-02-17 08:08:00,26.7,20.5,29.84,West,275,2.0,3.0,77,0.00,,,0.00,19,Wunderground v.1.15,2013-02-17 15:08:00,
2013-02-17 08:14:00,26.6,20.7,29.84,SW,236,1.0,2.0,78,0.00,,,0.00,28,Wunderground v.1.15,2013-02-17 15:14:00,
2013-02-17 08:20:00,26.7,20.1,29.84,South,175,2.0,3.0,76,0.00,,,0.00,16,Wunderground v.1.15,2013-02-17 15:20:00,
2013-02-17 08:26:00,27.1,19.9,29.85,SSE,162,6.0,13.0,74,0.00,,,0.00,19,Wunderground v.1.15,2013-02-17 15:26:00,
2013-02-17 08:32:00,27.8,19.3,29.86,South,170,9.0,9.0,70,0.00,,,0.00,28,Wunderground v.1.15,2013-02-17 15:32:00,
2013-02-17 08:38:00,28.2,19.7,29.86,South,175,6.0,13.0,70,0.00,,,0.00,47,Wunderground v.1.15,2013-02-17 15:38:00,
2013-02-17 08:44:00,28.7,19.1,29.85,South,185,6.0,6.0,67,0.00,,,0.00,109,Wunderground v.1.15,2013-02-17 15:44:00,
2013-02-17 08:50:00,29.3,19.3,29.85,SSE,162,6.0,8.0,66,0.00,,,0.00,144,Wunderground v.1.15,2013-02-17 15:50:00,
2013-02-17 08:56:00,29.8,19.8,29.86,South,173,7.0,11.0,66,0.00,,,0.00,142,Wunderground v.1.15,2013-02-17 15:56:00,
2013-02-17 09:02:00,30.1,19.7,29.86,South,189,9.0,15.0,65,0.00,,,0.00,98,Wunderground v.1.15,2013-02-17 16:02:00,
2013-02-17 09:08:00,30.2,19.5,29.87,South,181,10.0,15.0,64,0.00,,,0.00,155,Wunderground v.1.15,2013-02-17 16:08:00,
2013-02-17 09:14:00,30.4,20.0,29.87,South,170,8.0,9.0,65,0.00,,,0.00,146,Wunderground v.1.15,2013-02-17 16:14:00,
2013-02-17 09:20:00,30.5,20.1,29.87,South,177,8.0,9.0,65,0.00,,,0.00,149,Wunderground v.1.15,2013-02-17 16:20:00,
2013-02-17 09:28:00,30.6,19.9,29.87,South,180,6.0,9.0,64,0.00,,,0.00,181,Wunderground v.1.15,2013-02-17 16:28:00,
2013-02-17 09:34:00,30.8,20.0,29.87,SSW,195,5.0,9.0,64,0.00,,,0.00,202,Wunderground v.1.15,2013-02-17 16:34:00,
2013-02-17 09:40:00,31.0,20.2,29.88,South,186,6.0,9.0,64,0.00,,,0.00,188,Wunderground v.1.15,2013-02-17 16:40:00,
2013-02-17 09:46:00,31.0,21.3,29.88,SSE,167,8.0,12.0,67,0.00,,,0.00,141,Wunderground v.1.15,2013-02-17 16:46:00,
2013-02-17 09:52:00,30.9,21.9,29.88,SSE,165,6.0,7.0,69,0.00,,,0.00,132,Wunderground v.1.15,2013-02-17 16:52:00,
2013-02-17 10:00:00,30.8,21.1,29.88,South,173,6.0,6.0,67,0.00,,,0.00,209,Wunderground v.1.15,2013-02-17 17:00:00,
2013-02-17 10:06:00,30.7,22.1,29.88,SSW,209,9.0,11.0,70,0.00,,,0.00,283,Wunderground v.1.15,2013-02-17 17:06:00,
2013-02-17 10:14:00,31.1,23.1,29.88,West,271,5.0,7.0,72,0.00,,,0.00,174,Wunderground v.1.15,2013-02-17 17:14:00,
2013-02-17 10:20:00,31.2,22.9,29.88,West,269,4.0,4.0,71,0.00,,,0.00,167,Wunderground v.1.15,2013-02-17 17:20:00,
2013-02-17 10:26:00,31.3,23.3,29.88,West,269,2.0,4.0,72,0.00,,,0.00,207,Wunderground v.1.15,2013-02-17 17:26:00,
2013-02-17 10:32:00,31.3,23.3,29.89,West,269,1.0,2.0,72,0.00,,,0.00,221,Wunderground v.1.15,2013-02-17 17:32:00,
2013-02-17 10:38:00,31.3,23.3,29.88,West,269,1.0,2.0,72,0.00,,,0.00,232,Wunderground v.1.15,2013-02-17 17:38:00,
2013-02-17 10:44:00,31.4,23.4,29.89,West,269,1.0,1.0,72,0.00,,,0.00,283,Wunderground v.1.15,2013-02-17 17:44:00,
2013-02-17 10:50:00,31.6,22.6,29.88,SW,226,1.0,1.0,69,0.00,,,0.00,705,Wunderground v.1.15,2013-02-17 17:50:00,
2013-02-17 10:56:00,32.2,22.5,29.88,South,186,3.0,4.0,67,0.00,,,0.00,640,Wunderground v.1.15,2013-02-17 17:56:00,
2013-02-17 11:02:00,33.0,21.0,29.89,South,190,6.0,10.0,61,0.00,,,0.00,431,Wunderground v.1.15,2013-02-17 18:02:00,
2013-02-17 11:08:00,33.1,20.3,29.88,South,178,10.0,13.0,59,0.00,,,0.00,422,Wunderground v.1.15,2013-02-17 18:08:00,
2013-02-17 11:14:00,33.2,20.4,29.88,SSE,156,13.0,18.0,59,0.00,,,0.00,446,Wunderground v.1.15,2013-02-17 18:14:00,
2013-02-17 11:20:00,33.2,20.8,29.89,South,177,14.0,21.0,60,0.00,,,0.00,622,Wunderground v.1.15,2013-02-17 18:20:00,
2013-02-17 11:26:00,33.3,20.5,29.89,SSE,153,15.0,21.0,59,0.00,,,0.00,570,Wunderground v.1.15,2013-02-17 18:26:00,
2013-02-17 11:32:00,33.4,19.4,29.89,South,180,15.0,16.0,56,0.00,,,0.00,452,Wunderground v.1.15,2013-02-17 18:32:00,
2013-02-17 11:38:00,33.2,20.4,29.89,SSE,168,13.0,17.0,59,0.00,,,0.00,362,Wunderground v.1.15,2013-02-17 18:38:00,
2013-02-17 11:44:00,32.9,19.7,29.89,SSE,155,13.0,14.0,58,0.00,,,0.00,346,Wunderground v.1.15,2013-02-17 18:44:00,
2013-02-17 11:50:00,32.7,19.5,29.89,SSE,152,13.0,16.0,58,0.00,,,0.00,322,Wunderground v.1.15,2013-02-17 18:50:00,
2013-02-17 11:56:00,32.6,19.4,29.89,SSE,148,14.0,16.0,58,0.00,,,0.00,309,Wunderground v.1.15,2013-02-17 18:56:00,
2013-02-17 12:02:00,32.6,18.6,29.89,SSE,162,13.0,13.0,56,0.00,,,0.00,299,Wunderground v.1.15,2013-02-17 19:02:00,
2013-02-17 12:08:00,32.7,19.1,29.89,South,178,12.0,14.0,57,0.00,,,0.00,322,Wunderground v.1.15,2013-02-17 19:08:00,
2013-02-17 12:14:00,33.0,19.0,29.89,SSE,161,13.0,16.0,56,0.00,,,0.00,306,Wunderground v.1.15,2013-02-17 19:14:00,
2013-02-17 12:20:00,33.0,19.4,29.89,SSE,163,13.0,13.0,57,0.00,,,0.00,250,Wunderground v.1.15,2013-02-17 19:20:00,
2013-02-17 12:26:00,32.9,19.3,29.89,SSE,155,13.0,14.0,57,0.00,,,0.00,234,Wunderground v.1.15,2013-02-17 19:26:00,
2013-02-17 12:32:00,32.8,19.2,29.89,SSE,161,12.0,12.0,57,0.00,,,0.00,366,Wunderground v.1.15,2013-02-17 19:32:00,
2013-02-17 12:38:00,32.8,19.2,29.89,SSE,161,13.0,15.0,57,0.00,,,0.00,211,Wunderground v.1.15,2013-02-17 19:38:00,
2013-02-17 12:44:00,32.7,19.5,29.89,SSE,166,13.0,14.0,58,0.00,,,0.00,204,Wunderground v.1.15,2013-02-17 19:44:00,
2013-02-17 12:50:00,32.7,19.5,29.89,South,178,11.0,11.0,58,0.00,,,0.00,272,Wunderground v.1.15,2013-02-17 19:50:00,
2013-02-17 12:56:00,32.8,19.6,29.89,SSW,196,11.0,15.0,58,0.00,,,0.00,207,Wunderground v.1.15,2013-02-17 19:56:00,
2013-02-17 13:02:00,32.9,20.1,29.90,SSE,163,9.0,11.0,59,0.00,,,0.00,178,Wunderground v.1.15,2013-02-17 20:02:00,
2013-02-17 13:08:00,32.8,20.4,29.90,SSW,197,10.0,11.0,60,0.00,,,0.00,149,Wunderground v.1.15,2013-02-17 20:08:00,
2013-02-17 13:14:00,32.6,20.2,29.90,South,186,10.0,14.0,60,0.00,,,0.00,163,Wunderground v.1.15,2013-02-17 20:14:00,
2013-02-17 13:20:00,32.5,19.7,29.90,SSE,160,10.0,13.0,59,0.00,,,0.00,202,Wunderground v.1.15,2013-02-17 20:20:00,
2013-02-17 13:26:00,32.4,20.8,29.90,SSW,194,11.0,13.0,62,0.00,,,0.00,243,Wunderground v.1.15,2013-02-17 20:26:00,
2013-02-17 13:32:00,32.5,20.1,29.90,SSE,160,10.0,14.0,60,0.00,,,0.00,209,Wunderground v.1.15,2013-02-17 20:32:00,
2013-02-17 13:38:00,32.5,20.9,29.90,SW,232,12.0,20.0,62,0.00,,,0.00,135,Wunderground v.1.15,2013-02-17 20:38:00,
2013-02-17 13:44:00,32.4,20.0,29.91,SSE,165,13.0,13.0,60,0.00,,,0.00,142,Wunderground v.1.15,2013-02-17 20:44:00,
2013-02-17 13:50:00,32.4,21.2,29.91,SSE,165,10.0,10.0,63,0.00,,,0.00,176,Wunderground v.1.15,2013-02-17 20:50:00,
2013-02-17 13:56:00,32.3,20.7,29.91,South,182,9.0,10.0,62,0.00,,,0.00,156,Wunderground v.1.15,2013-02-17 20:56:00,
2013-02-17 14:02:00,32.3,21.5,29.91,South,187,10.0,13.0,64,0.00,,,0.00,134,Wunderground v.1.15,2013-02-17 21:02:00,
2013-02-17 14:08:00,32.1,22.7,29.91,SW,225,9.0,13.0,68,0.00,,,0.00,169,Wunderground v.1.15,2013-02-17 21:08:00,
2013-02-17 14:14:00,32.0,21.9,29.91,NW,308,5.0,9.0,66,0.00,,,0.00,141,Wunderground v.1.15,2013-02-17 21:14:00,
2013-02-17 14:20:00,32.0,22.3,29.91,WNW,296,4.0,4.0,67,0.00,,,0.00,125,Wunderground v.1.15,2013-02-17 21:20:00,
2013-02-17 14:26:00,32.0,23.0,29.91,WNW,297,5.0,7.0,69,0.00,,,0.00,128,Wunderground v.1.15,2013-02-17 21:26:00,
2013-02-17 14:32:00,31.8,22.8,29.91,NW,304,6.0,6.0,69,0.00,,,0.00,144,Wunderground v.1.15,2013-02-17 21:32:00,
2013-02-17 14:38:00,31.7,22.3,29.91,WNW,298,6.0,7.0,68,0.00,,,0.00,151,Wunderground v.1.15,2013-02-17 21:38:00,
2013-02-17 14:44:00,31.8,22.4,29.91,WNW,296,2.0,5.0,68,0.00,,,0.00,214,Wunderground v.1.15,2013-02-17 21:44:00,
2013-02-17 14:50:00,32.1,22.4,29.91,WNW,292,3.0,5.0,67,0.00,,,0.00,251,Wunderground v.1.15,2013-02-17 21:50:00,
2013-02-17 14:56:00,32.5,22.4,29.92,WNW,292,4.0,5.0,66,0.00,,,0.00,209,Wunderground v.1.15,2013-02-17 21:56:00,
2013-02-17 15:02:00,32.7,22.2,29.92,WNW,291,3.0,3.0,65,0.00,,,0.00,172,Wunderground v.1.15,2013-02-17 22:02:00,
2013-02-17 15:10:00,32.8,22.0,29.92,WNW,292,1.0,1.0,64,0.00,,,0.00,172,Wunderground v.1.15,2013-02-17 22:10:00,
2013-02-17 15:16:00,32.9,21.7,29.93,West,261,1.0,6.0,63,0.00,,,0.00,155,Wunderground v.1.15,2013-02-17 22:16:00,
2013-02-17 15:22:00,32.9,21.7,29.93,West,261,2.0,2.0,63,0.00,,,0.00,171,Wunderground v.1.15,2013-02-17 22:22:00,
2013-02-17 15:28:00,33.0,22.1,29.93,West,261,0.0,2.0,64,0.00,,,0.00,206,Wunderground v.1.15,2013-02-17 22:28:00,
2013-02-17 15:34:00,33.0,21.8,29.93,West,261,0.0,1.0,63,0.00,,,0.00,144,Wunderground v.1.15,2013-02-17 22:34:00,
2013-02-17 15:40:00,33.0,21.4,29.93,West,261,0.0,0.0,62,0.00,,,0.00,104,Wunderground v.1.15,2013-02-17 22:40:00,
2013-02-17 15:46:00,33.1,21.9,29.93,West,261,0.0,0.0,63,0.00,,,0.00,95,Wunderground v.1.15,2013-02-17 22:46:00,
2013-02-17 15:52:00,33.1,21.1,29.93,West,261,0.0,0.0,61,0.00,,,0.00,109,Wunderground v.1.15,2013-02-17 22:52:00,
2013-02-17 15:58:00,33.1,21.9,29.93,West,261,0.0,0.0,63,0.00,,,0.00,104,Wunderground v.1.15,2013-02-17 22:58:00,
2013-02-17 16:04:00,33.2,21.6,29.94,West,261,0.0,0.0,62,0.00,,,0.00,100,Wunderground v.1.15,2013-02-17 23:04:00,
2013-02-17 16:10:00,33.2,21.2,29.94,West,261,0.0,0.0,61,0.00,,,0.00,93,Wunderground v.1.15,2013-02-17 23:10:00,
2013-02-17 16:16:00,33.1,21.1,29.95,West,261,0.0,0.0,61,0.00,,,0.00,83,Wunderground v.1.15,2013-02-17 23:16:00,
2013-02-17 16:22:00,33.0,21.0,29.95,West,261,0.0,0.0,61,0.00,,,0.00,74,Wunderground v.1.15,2013-02-17 23:22:00,
2013-02-17 16:28:00,33.0,21.4,29.95,West,261,0.0,0.0,62,0.00,,,0.00,76,Wunderground v.1.15,2013-02-17 23:28:00,
2013-02-17 16:34:00,33.0,21.4,29.95,West,261,0.0,0.0,62,0.00,,,0.00,83,Wunderground v.1.15,2013-02-17 23:34:00,
2013-02-17 16:40:00,33.0,21.4,29.96,West,261,0.0,0.0,62,0.00,,,0.00,91,Wunderground v.1.15,2013-02-17 23:40:00,
2013-02-17 16:46:00,32.9,20.9,29.96,South,171,1.0,11.0,61,0.00,,,0.00,79,Wunderground v.1.15,2013-02-17 23:46:00,
2013-02-17 16:54:00,32.6,21.8,29.96,SSW,192,7.0,9.0,64,0.00,,,0.00,72,Wunderground v.1.15,2013-02-17 23:54:00,
2013-02-17 17:02:00,32.2,21.7,29.97,SSE,153,7.0,7.0,65,0.00,,,0.00,67,Wunderground v.1.15,2013-02-18 00:02:00,
2013-02-17 17:08:00,31.8,22.1,29.97,SE,145,8.0,10.0,67,0.00,,,0.00,47,Wunderground v.1.15,2013-02-18 00:08:00,
2013-02-17 17:14:00,31.5,22.1,29.97,SSE,156,8.0,10.0,68,0.00,,,0.00,35,Wunderground v.1.15,2013-02-18 00:14:00,
2013-02-17 17:20:00,31.2,21.5,29.98,SSE,163,8.0,10.0,67,0.00,,,0.00,37,Wunderground v.1.15,2013-02-18 00:20:00,
2013-02-17 17:26:00,31.1,21.4,29.98,SSE,156,6.0,9.0,67,0.00,,,0.00,42,Wunderground v.1.15,2013-02-18 00:26:00,
2013-02-17 17:32:00,31.0,21.0,29.98,SSE,162,6.0,6.0,66,0.00,,,0.00,46,Wunderground v.1.15,2013-02-18 00:32:00,
2013-02-17 17:38:00,31.0,21.0,29.98,South,171,7.0,7.0,66,0.00,,,0.00,49,Wunderground v.1.15,2013-02-18 00:38:00,
2013-02-17 17:44:00,30.8,20.8,29.98,South,176,8.0,11.0,66,0.00,,,0.00,28,Wunderground v.1.15,2013-02-18 00:44:00,
2013-02-17 17:50:00,30.6,20.9,29.99,South,172,8.0,11.0,67,0.00,,,0.00,16,Wunderground v.1.15,2013-02-18 00:50:00,
2013-02-17 17:56:00,30.5,20.8,29.99,South,169,8.0,11.0,67,0.00,,,0.00,9,Wunderground v.1.15,2013-02-18 00:56:00,
2013-02-17 18:02:00,30.4,20.7,29.99,South,183,8.0,9.0,67,0.00,,,0.00,0,Wunderground v.1.15,2013-02-18 01:02:00,
2013-02-17 18:08:00,30.3,21.0,30.00,SSW,194,7.0,10.0,68,0.00,,,0.00,0,Wunderground v.1.15,2013-02-18 01:08:00,
2013-02-17 18:14:00,30.2,21.2,30.00,South,188,6.0,7.0,69,0.00,,,0.00,0,Wunderground v.1.15,2013-02-18 01:14:00,
2013-02-17 18:20:00,29.9,21.3,30.01,South,175,4.0,4.0,70,0.00,,,0.00,0,Wunderground v.1.15,2013-02-18 01:20:00,
2013-02-17 18:26:00,29.6,21.0,30.00,South,175,2.0,4.0,70,0.00,,,0.00,0,Wunderground v.1.15,2013-02-18 01:26:00,
2013-02-17 18:32:00,29.4,21.2,30.00,South,175,1.0,1.0,71,0.00,,,0.00,0,Wunderground v.1.15,2013-02-18 01:32:00,
2013-02-17 18:38:00,29.1,20.9,30.01,South,175,0.0,3.0,71,0.00,,,0.00,0,Wunderground v.1.15,2013-02-18 01:38:00,
2013-02-17 18:44:00,28.9,20.7,30.01,South,175,0.0,0.0,71,0.00,,,0.00,0,Wunderground v.1.15,2013-02-18 01:44:00,
2013-02-17 18:50:00,28.8,20.6,30.01,South,175,0.0,0.0,71,0.00,,,0.00,0,Wunderground v.1.15,2013-02-18 01:50:00,
2013-02-17 18:56:00,28.6,20.4,30.01,South,175,0.0,0.0,71,0.00,,,0.00,0,Wunderground v.1.15,2013-02-18 01:56:00,
2013-02-17 19:02:00,28.5,20.0,30.02,South,175,0.0,0.0,70,0.00,,,0.00,0,Wunderground v.1.15,2013-02-18 02:02:00,
2013-02-17 19:08:00,28.4,19.9,30.02,SSE,168,3.0,6.0,70,0.00,,,0.00,0,Wunderground v.1.15,2013-02-18 02:08:00,
2013-02-17 19:14:00,28.5,20.0,30.03,South,173,7.0,11.0,70,0.00,,,0.00,0,Wunderground v.1.15,2013-02-18 02:14:00,
2013-02-17 19:20:00,28.5,19.6,30.03,SSE,155,8.0,12.0,69,0.00,,,0.00,0,Wunderground v.1.15,2013-02-18 02:20:00,
2013-02-17 19:26:00,28.5,19.6,30.03,SSE,156,8.0,12.0,69,0.00,,,0.00,0,Wunderground v.1.15,2013-02-18 02:26:00,
2013-02-17 19:32:00,28.4,19.9,30.03,SE,145,7.0,8.0,70,0.00,,,0.00,0,Wunderground v.1.15,2013-02-18 02:32:00,
2013-02-17 19:38:00,28.3,19.8,30.03,SE,144,4.0,8.0,70,0.00,,,0.00,0,Wunderground v.1.15,2013-02-18 02:38:00,
2013-02-17 19:46:00,28.0,18.8,30.03,SSE,158,4.0,7.0,68,0.00,,,0.00,0,Wunderground v.1.15,2013-02-18 02:46:00,
2013-02-17 19:52:00,27.9,18.7,30.03,South,172,4.0,4.0,68,0.00,,,0.00,0,Wunderground v.1.15,2013-02-18 02:52:00,
2013-02-17 19:58:00,27.7,18.2,30.03,South,178,3.0,4.0,67,0.00,,,0.00,0,Wunderground v.1.15,2013-02-18 02:58:00,
2013-02-17 20:04:00,27.5,18.0,30.04,South,174,3.0,3.0,67,0.00,,,0.00,0,Wunderground v.1.15,2013-02-18 03:04:00,
2013-02-17 20:14:00,27.3,17.8,30.04,South,185,4.0,4.0,67,0.00,,,0.00,0,Wunderground v.1.15,2013-02-18 03:14:00,
2013-02-17 20:20:00,27.2,17.7,30.04,South,186,4.0,4.0,67,0.00,,,0.00,0,Wunderground v.1.15,2013-02-18 03:20:00,
2013-02-17 20:28:00,27.2,17.3,30.04,SSW,211,3.0,4.0,66,0.00,,,0.00,0,Wunderground v.1.15,2013-02-18 03:28:00,
2013-02-17 20:34:00,27.2,17.3,30.04,South,189,2.0,3.0,66,0.00,,,0.00,0,Wunderground v.1.15,2013-02-18 03:34:00,
2013-02-17 20:40:00,27.1,17.2,30.05,WSW,245,2.0,6.0,66,0.00,,,0.00,0,Wunderground v.1.15,2013-02-18 03:40:00,
2013-02-17 20:46:00,27.1,17.2,30.05,SW,232,4.0,6.0,66,0.00,,,0.00,0,Wunderground v.1.15,2013-02-18 03:46:00,
2013-02-17 20:52:00,27.1,17.2,30.05,WSW,252,4.0,10.0,66,0.00,,,0.00,0,Wunderground v.1.15,2013-02-18 03:52:00,
2013-02-17 20:58:00,27.2,16.6,30.06,SW,234,6.0,10.0,64,0.00,,,0.00,0,Wunderground v.1.15,2013-02-18 03:58:00,
2013-02-17 21:04:00,27.3,16.7,30.06,SW,219,5.0,10.0,64,0.00,,,0.00,0,Wunderground v.1.15,2013-02-18 04:04:00,
2013-02-17 21:10:00,27.3,16.7,30.06,SW,219,3.0,3.0,64,0.00,,,0.00,0,Wunderground v.1.15,2013-02-18 04:10:00,
2013-02-17 21:16:00,27.1,16.9,30.06,SW,221,2.0,4.0,65,0.00,,,0.00,0,Wunderground v.1.15,2013-02-18 04:16:00,
2013-02-17 21:22:00,27.0,16.8,30.06,SW,221,2.0,2.0,65,0.00,,,0.00,0,Wunderground v.1.15,2013-02-18 04:22:00,
2013-02-17 21:28:00,27.0,16.8,30.07,SW,221,0.0,2.0,65,0.00,,,0.00,0,Wunderground v.1.15,2013-02-18 04:28:00,
2013-02-17 21:36:00,26.8,16.6,30.06,SW,221,0.0,0.0,65,0.00,,,0.00,0,Wunderground v.1.15,2013-02-18 04:36:00,
2013-02-17 21:42:00,26.6,16.8,30.07,South,188,2.0,4.0,66,0.00,,,0.00,0,Wunderground v.1.15,2013-02-18 04:42:00,
2013-02-17 21:50:00,26.7,16.1,30.07,South,183,7.0,11.0,64,0.00,,,0.00,0,Wunderground v.1.15,2013-02-18 04:50:00,
2013-02-17 21:56:00,26.9,16.0,30.07,South,169,9.0,11.0,63,0.00,,,0.00,0,Wunderground v.1.15,2013-02-18 04:56:00,
2013-02-17 22:02:00,26.9,16.0,30.07,South,173,7.0,7.0,63,0.00,,,0.00,0,Wunderground v.1.15,2013-02-18 05:02:00,
2013-02-17 22:08:00,26.7,16.1,30.07,South,174,4.0,5.0,64,0.00,,,0.00,0,Wunderground v.1.15,2013-02-18 05:08:00,
2013-02-17 22:14:00,26.4,16.2,30.08,South,174,2.0,4.0,65,0.00,,,0.00,0,Wunderground v.1.15,2013-02-18 05:14:00,
2013-02-17 22:20:00,26.1,16.3,30.08,South,174,0.0,0.0,66,0.00,,,0.00,0,Wunderground v.1.15,2013-02-18 05:20:00,
2013-02-17 22:26:00,25.8,15.6,30.08,South,174,0.0,0.0,65,0.00,,,0.00,0,Wunderground v.1.15,2013-02-18 05:26:00,
2013-02-17 22:32:00,25.2,15.8,30.08,South,174,0.0,0.0,67,0.00,,,0.00,0,Wunderground v.1.15,2013-02-18 05:32:00,
2013-02-17 22:38:00,24.8,15.7,30.08,South,174,0.0,0.0,68,0.00,,,0.00,0,Wunderground v.1.15,2013-02-18 05:38:00,
2013-02-17 22:46:00,24.2,15.8,30.09,South,174,0.0,0.0,70,0.00,,,0.00,0,Wunderground v.1.15,2013-02-18 05:46:00,
2013-02-17 22:52:00,23.7,15.7,30.09,South,174,0.0,0.0,71,0.00,,,0.00,0,Wunderground v.1.15,2013-02-18 05:52:00,
2013-02-17 22:58:00,23.4,16.0,30.09,South,174,0.0,0.0,73,0.00,,,0.00,0,Wunderground v.1.15,2013-02-18 05:58:00,
2013-02-17 23:04:00,23.1,15.7,30.09,South,174,0.0,0.0,73,0.00,,,0.00,0,Wunderground v.1.15,2013-02-18 06:04:00,
2013-02-17 23:10:00,23.0,15.6,30.09,South,173,2.0,3.0,73,0.00,,,0.00,0,Wunderground v.1.15,2013-02-18 06:10:00,
2013-02-17 23:16:00,23.4,15.7,30.10,SSE,165,3.0,3.0,72,0.00,,,0.00,0,Wunderground v.1.15,2013-02-18 06:16:00,
2013-02-17 23:22:00,23.8,15.8,30.10,SSE,165,2.0,2.0,71,0.00,,,0.00,0,Wunderground v.1.15,2013-02-18 06:22:00,
2013-02-17 23:28:00,24.1,16.1,30.10,SSE,166,1.0,2.0,71,0.00,,,0.00,0,Wunderground v.1.15,2013-02-18 06:28:00,
2013-02-17 23:34:00,24.3,15.9,30.10,SSE,166,0.0,1.0,70,0.00,,,0.00,0,Wunderground v.1.15,2013-02-18 06:34:00,
2013-02-17 23:40:00,24.4,15.7,30.10,SSE,166,0.0,0.0,69,0.00,,,0.00,0,Wunderground v.1.15,2013-02-18 06:40:00,
2013-02-17 23:46:00,24.5,15.8,30.10,SSE,161,1.0,2.0,69,0.00,,,0.00,0,Wunderground v.1.15,2013-02-18 06:46:00,
2013-02-17 23:52:00,24.7,15.6,30.10,SE,144,2.0,3.0,68,0.00,,,0.00,0,Wunderground v.1.15,2013-02-18 06:52:00,
2013-02-17 23:58:00,24.9,15.8,30.10,ENE,77,2.0,3.0,68,0.00,,,0.00,0,Wunderground v.1.15,2013-02-18 06:58:00,